contact:dominique.lefevre@mio.osupytheas.fr, maurice.libes@osupytheas.fr
Project:EMSO Ligure-ouest http://www.emso-fr.org/EMSO-France
Sensor Aquadopp, line 04 Serial AQD8517 
DOI : "https://doi.org/10.17882/74513; https://doi.org/10.17882/83244" 
Title:EMSO Ligure Ouest : Data ligne ALBATROSS capteur AQUADOPP - deploiement 2021
Id,Date,Profondeur,Latitude,Longitude,X_East,Y_North,Z_Up,Amplitude_X,Amplitude_Y,Amplitude_Z,Batterie,SoundSpeed,Heading,Pitch,Roll,Pressure,Temperature,Speed,Direction
, , m, degrees North, degrees East, m.s-1, m.s-1,m.s-1, 1, 1, 1, Volt, m.s-1, degree, degree, degree, dbar, degree_C, m.s-1, degree
01,2022-05-11T21:30:00,500.0,42.79,6.0312,0.03,-0.018,0.0,68.0,63.0,62.0,11.8,1505.6,169.6,-0.1,0.7,451.942,13.56,0.034,121.0
01,2022-05-11T22:00:00,500.0,42.79,6.0312,0.023,-0.019,0.005,67.0,61.0,64.0,11.9,1505.5,164.5,-0.1,0.6,451.969,13.55,0.029,129.6
01,2022-05-11T22:30:00,500.0,42.79,6.0312,0.035,-0.012,-0.009,67.0,67.0,65.0,11.9,1505.5,161.7,-0.1,0.7,451.933,13.55,0.037,108.9
01,2022-05-11T23:00:00,500.0,42.79,6.0312,0.025,-0.023,-0.002,64.0,63.0,60.0,11.8,1505.6,182.0,-0.2,0.7,451.931,13.56,0.033,132.6
01,2022-05-11T23:30:00,500.0,42.79,6.0312,0.003,-0.03,0.008,65.0,61.0,63.0,11.9,1505.6,193.1,-0.2,0.7,451.96,13.56,0.03,174.3
01,2022-05-12T00:00:00,500.0,42.79,6.0312,0.009,-0.03,-0.008,67.0,61.0,62.0,11.9,1505.6,191.6,-0.2,0.7,451.991,13.56,0.031,163.3
01,2022-05-12T00:30:00,500.0,42.79,6.0312,0.006,-0.027,0.009,67.0,61.0,63.0,11.9,1505.6,195.4,-0.1,0.7,451.972,13.57,0.027,167.5
01,2022-05-12T01:00:00,500.0,42.79,6.0312,-0.002,-0.025,-0.003,68.0,63.0,61.0,11.9,1505.6,194.6,-0.1,0.6,451.979,13.58,0.025,184.6
01,2022-05-12T01:30:00,500.0,42.79,6.0312,-0.001,-0.036,0.0,68.0,63.0,64.0,11.9,1505.6,180.1,0.0,0.6,451.99,13.58,0.036,181.6
01,2022-05-12T02:00:00,500.0,42.79,6.0312,0.002,-0.022,-0.006,66.0,63.0,61.0,11.9,1505.6,137.5,-0.1,0.6,452.052,13.56,0.022,174.8
01,2022-05-12T02:30:00,500.0,42.79,6.0312,0.011,-0.023,0.005,68.0,63.0,62.0,11.8,1505.6,86.3,-0.1,0.6,451.995,13.57,0.025,154.4
01,2022-05-12T03:00:00,500.0,42.79,6.0312,0.0,-0.003,0.005,65.0,65.0,63.0,11.8,1505.6,81.6,-0.1,0.7,452.072,13.56,0.003,180.0
01,2022-05-12T03:30:00,500.0,42.79,6.0312,-0.005,-0.021,-0.007,68.0,62.0,64.0,11.8,1505.6,68.1,-0.1,0.6,452.11,13.57,0.021,193.4
01,2022-05-12T04:00:00,500.0,42.79,6.0312,0.004,-0.012,0.013,66.0,59.0,61.0,11.8,1505.6,82.6,-0.2,0.7,452.097,13.57,0.012,161.6
01,2022-05-12T04:30:00,500.0,42.79,6.0312,-0.005,-0.022,0.005,67.0,64.0,65.0,11.8,1505.6,44.7,-0.1,0.6,452.084,13.56,0.022,192.8
01,2022-05-12T05:00:00,500.0,42.79,6.0312,0.003,-0.008,-0.011,65.0,64.0,62.0,11.8,1505.6,40.2,-0.1,0.6,452.113,13.56,0.008,159.4
01,2022-05-12T05:30:00,500.0,42.79,6.0312,-0.005,0.0,0.007,64.0,63.0,64.0,11.9,1505.6,45.5,-0.2,0.7,452.131,13.56,0.005,270.0
01,2022-05-12T06:00:00,500.0,42.79,6.0312,0.008,0.0,0.014,76.0,59.0,61.0,11.9,1505.6,42.1,-0.2,0.7,452.092,13.56,0.008,90.0
01,2022-05-12T06:30:00,500.0,42.79,6.0312,0.004,-0.005,0.001,62.0,62.0,52.0,11.8,1505.6,53.6,-0.1,0.7,452.032,13.56,0.006,141.3
01,2022-05-12T07:00:00,500.0,42.79,6.0312,0.002,-0.007,0.019,66.0,59.0,64.0,11.9,1505.6,77.0,-0.2,0.7,452.043,13.56,0.007,164.1
01,2022-05-12T07:30:00,500.0,42.79,6.0312,0.005,0.008,0.016,65.0,61.0,66.0,11.9,1505.6,83.2,-0.1,0.7,452.059,13.57,0.009,32.0
01,2022-05-12T08:00:00,500.0,42.79,6.0312,0.008,0.0,0.0,69.0,68.0,64.0,11.9,1505.6,88.6,-0.1,0.7,451.994,13.56,0.008,90.0
01,2022-05-12T08:30:00,500.0,42.79,6.0312,0.005,0.013,-0.008,67.0,63.0,65.0,11.8,1505.6,93.2,-0.2,0.7,451.977,13.57,0.013,21.0
01,2022-05-12T09:00:00,500.0,42.79,6.0312,0.017,-0.004,-0.018,66.0,60.0,67.0,11.9,1505.6,100.4,-0.2,0.6,451.989,13.56,0.017,103.2
01,2022-05-12T09:30:00,500.0,42.79,6.0312,0.011,0.014,0.006,70.0,63.0,63.0,11.8,1505.6,97.3,-0.1,0.6,451.931,13.57,0.017,38.2
01,2022-05-12T10:00:00,500.0,42.79,6.0312,0.014,0.001,-0.01,67.0,61.0,63.0,11.8,1505.6,104.0,-0.1,0.6,451.916,13.57,0.014,85.9
01,2022-05-12T10:30:00,500.0,42.79,6.0312,0.022,-0.003,0.006,67.0,65.0,64.0,11.9,1505.6,109.8,0.0,0.6,451.912,13.56,0.022,97.8
01,2022-05-12T11:00:00,500.0,42.79,6.0312,0.027,-0.005,0.011,68.0,65.0,64.0,11.9,1505.6,120.6,-0.2,0.7,451.9,13.56,0.027,100.5
01,2022-05-12T11:30:00,500.0,42.79,6.0312,0.026,-0.008,0.004,67.0,63.0,66.0,11.9,1505.6,137.4,-0.1,0.7,451.915,13.58,0.027,107.1
01,2022-05-12T12:00:00,500.0,42.79,6.0312,0.02,-0.004,0.004,68.0,65.0,62.0,11.8,1505.6,128.9,-0.1,0.7,451.903,13.58,0.02,101.3
01,2022-05-12T12:30:00,500.0,42.79,6.0312,0.04,-0.008,0.007,69.0,63.0,64.0,11.9,1505.6,144.2,-0.2,0.6,451.881,13.57,0.04,101.3
01,2022-05-12T13:00:00,500.0,42.79,6.0312,0.034,-0.029,0.012,67.0,65.0,68.0,11.9,1505.6,143.7,-0.1,0.7,451.91,13.58,0.044,130.5
01,2022-05-12T13:30:00,500.0,42.79,6.0312,0.024,-0.011,0.015,67.0,64.0,62.0,11.8,1505.6,154.6,-0.1,0.8,451.886,13.57,0.026,114.6
01,2022-05-12T14:00:00,500.0,42.79,6.0312,0.016,-0.006,0.019,71.0,64.0,61.0,11.9,1505.6,181.3,-0.1,0.7,451.96,13.56,0.017,110.6
01,2022-05-12T14:30:00,500.0,42.79,6.0312,0.028,-0.024,0.007,72.0,63.0,63.0,11.8,1505.6,172.8,-0.2,0.6,451.984,13.56,0.036,130.6
01,2022-05-12T15:00:00,500.0,42.79,6.0312,0.018,-0.005,0.01,70.0,59.0,64.0,11.8,1505.6,177.7,-0.1,0.6,451.978,13.56,0.018,105.5
01,2022-05-12T15:30:00,500.0,42.79,6.0312,0.009,-0.015,0.002,68.0,62.0,62.0,11.8,1505.6,179.4,-0.1,0.6,452.041,13.56,0.017,149.0
01,2022-05-12T16:00:00,500.0,42.79,6.0312,0.014,-0.012,0.003,68.0,65.0,64.0,11.9,1505.6,190.2,0.0,0.6,452.05,13.56,0.018,130.6
01,2022-05-12T16:30:00,500.0,42.79,6.0312,0.022,0.0,-0.006,69.0,60.0,63.0,11.9,1505.6,189.9,-0.2,0.6,452.036,13.56,0.022,90.0
01,2022-05-12T17:00:00,500.0,42.79,6.0312,0.008,-0.003,0.029,71.0,68.0,60.0,11.8,1505.6,206.2,-0.2,0.7,452.045,13.56,0.008,110.6
01,2022-05-12T17:30:00,500.0,42.79,6.0312,0.023,-0.006,0.019,68.0,63.0,62.0,11.9,1505.6,195.5,-0.1,0.8,452.03,13.56,0.023,104.6
01,2022-05-12T18:00:00,500.0,42.79,6.0312,0.022,-0.01,-0.004,68.0,62.0,65.0,11.9,1505.6,188.1,-0.1,0.6,452.08,13.56,0.024,114.4
01,2022-05-12T18:30:00,500.0,42.79,6.0312,0.0,-0.033,-0.001,68.0,64.0,66.0,11.8,1505.6,219.8,-0.1,0.6,452.045,13.58,0.033,180.0
01,2022-05-12T19:00:00,500.0,42.79,6.0312,-0.002,-0.029,0.002,68.0,63.0,63.0,11.8,1505.6,240.5,-0.1,0.6,451.983,13.58,0.029,183.9
01,2022-05-12T19:30:00,500.0,42.79,6.0312,-0.002,-0.027,-0.002,70.0,62.0,60.0,11.8,1505.6,247.4,-0.1,0.6,451.996,13.58,0.027,184.2
01,2022-05-12T20:00:00,500.0,42.79,6.0312,-0.012,-0.042,0.015,66.0,66.0,62.0,11.9,1505.6,254.0,-0.1,0.6,452.002,13.56,0.043,195.9
01,2022-05-12T20:30:00,500.0,42.79,6.0312,-0.006,-0.02,-0.012,68.0,60.0,63.0,11.8,1505.6,267.6,-0.1,0.6,451.977,13.56,0.02,196.7
01,2022-05-12T21:00:00,500.0,42.79,6.0312,-0.018,-0.011,0.002,70.0,63.0,63.0,11.8,1505.6,260.9,-0.1,0.7,451.965,13.58,0.021,238.6
